Lid_Strength_Index
11 13 14 13 11 10 10 10 11 9 7 8 9 8 7 6 7 7 6 6 6 5 5 4 3 3 3 2 3 2 2 2 2 2 2 3 3 3 3 2 2 0 0 0
12 14 11 9 10 11 11 12 12 9 7 8 8 9 7 6 6 6 6 6 6 6 5 4 4 3 3 3 3 3 3 2 2 2 3 3 3 3 3 2 1 0 1 1
13 12 9 10 10 11 12 12 12 12 9 9 10 11 9 7 7 6 6 6 6 6 6 5 4 4 3 3 3 3 2 3 3 2 3 3 2 2 3 2 2 1 1 1
14 11 10 11 12 10 13 9 10 10 11 14 9 14 10 9 8 6 6 6 6 6 5 5 5 4 4 3 2 2 2 2 2 3 3 3 4 4 3 3 2 2 1 1
15 13 12 12 11 9 12 8 9 9 11 12 11 14 12 9 9 8 7 7 6 6 5 5 5 4 3 3 3 2 2 3 2 2 2 2 3 3 3 3 2 2 2 1
12 10 11 12 11 9 9 10 10 10 11 15 13 12 13 11 9 8 7 6 6 6 5 5 4 4 4 3 3 2 2 2 2 2 2 3 3 3 3 3 3 3 2 2
11 11 10 10 13 11 11 13 16 16 16 17 12 13 12 10 8 7 7 7 6 6 6 5 5 5 4 4 3 3 3 3 2 2 2 2 3 3 3 3 3 3 3 2
14 16 10 8 12 13 13 12 16 19 18 16 11 15 13 7 6 7 7 7 6 7 5 5 5 4 4 4 3 3 3 3 2 2 2 2 2 3 3 3 3 3 2 2
15 14 8 9 10 10 13 15 12 14 13 15 13 11 9 8 8 8 8 6 7 6 6 5 5 4 4 4 3 3 3 3 2 2 2 2 2 2 2 2 2 2 2 1
10 15 10 10 8 8 9 11 14 13 18 18 14 13 13 11 10 8 8 8 7 6 6 5 5 4 4 3 3 3 3 3 3 2 2 2 2 2 2 2 2 2 2 2
10 12 12 10 11 12 11 13 13 13 13 16 17 15 9 10 8 9 8 7 7 6 6 5 5 4 4 3 3 3 3 3 3 2 2 2 2 2 2 2 2 2 2 1
10 13 16 13 9 8 9 11 12 15 15 13 13 14 9 8 8 8 8 7 6 6 5 5 4 4 4 4 3 3 3 3 3 2 2 2 2 2 2 2 2 2 2 1
10 14 18 15 12 9 11 10 10 11 11 13 15 14 9 8 8 7 8 7 6 6 5 5 5 4 4 4 3 3 3 3 2 2 2 2 2 2 2 2 2 2 2 2
8 12 15 18 15 13 14 12 11 13 13 13 12 11 9 8 8 7 7 6 6 6 5 5 5 4 4 4 3 4 3 3 2 2 3 2 2 2 2 2 2 2 2 1
10 14 13 12 11 11 13 12 12 13 13 13 11 11 10 9 8 8 6 6 6 6 6 5 5 5 4 4 4 3 3 3 3 2 2 2 2 2 2 2 2 2 2 1
9 14 12 15 12 11 13 11 11 12 11 12 10 11 8 7 7 7 7 6 7 6 6 5 5 4 4 4 3 3 3 3 3 2 3 2 2 2 2 2 2 2 2 2
11 13 15 17 12 13 16 12 12 11 10 10 12 10 8 8 8 8 7 6 6 6 5 5 5 4 4 4 3 3 3 3 3 2 2 2 2 2 2 2 2 2 2 2
11 12 13 17 14 20 12 9 9 11 9 8 8 8 8 8 8 7 6 6 6 5 5 4 4 4 4 4 3 3 3 3 3 3 2 2 2 2 2 2 2 2 2 2
8 10 15 18 18 15 12 11 12 13 12 9 8 7 7 7 7 7 6 5 6 5 4 4 3 3 4 4 3 3 3 3 3 3 3 2 2 2 2 2 2 2 2 2
8 9 13 15 19 21 14 10 9 9 16 9 8 9 8 8 12 10 6 5 5 4 4 4 3 3 4 4 3 3 4 3 3 3 2 2 2 2 2 2 2 2 2 2
13 13 15 16 18 15 11 9 8 17 15 9 7 8 8 9 8 7 6 5 4 4 4 3 3 3 4 4 3 3 4 4 3 2 2 2 2 2 2 2 2 2 2 2
15 16 16 15 17 19 9 9 13 10 8 7 7 7 8 7 6 6 5 5 5 5 4 3 4 3 4 4 3 4 4 3 3 2 2 2 2 2 2 2 2 2 3 4
15 12 14 14 14 9 8 9 7 7 7 7 7 6 6 6 6 6 5 5 5 5 4 5 3 3 4 4 3 3 3 3 3 3 2 2 2 2 2 2 2 3 2 3
10 8 12 12 11 9 8 8 7 7 7 6 6 6 6 6 6 6 5 5 4 4 4 3 3 4 4 4 3 2 2 2 3 3 2 3 2 3 2 2 2 2 3 3
10 9 11 11 9 8 7 8 8 7 7 6 6 6 5 6 6 5 6 5 4 4 4 3 4 4 4 4 3 2 2 2 2 2 2 3 2 3 3 5 4 3 2 2
8 10 12 12 8 9 9 7 7 7 7 7 6 6 6 5 5 5 5 6 5 4 4 4 3 3 4 4 3 2 2 2 2 3 3 3 3 3 5 7 7 13 12 10